Content
SEND FEEDBACK

Daily
Averages
Monthly
Summary
Canada

ST. ALEXIS DES MONTS, QUEBEC


Home > North America > Canada > Quebec
Elevation: 600 feet     Latitude: 46 32N     Longitude: 73 09W

WEATHER
 
SELECT A DAY
Number of Records: 131,387;   Date Range: 12/29/99 - 8/20/14
 
SHARE

PRINT THIS DATA

[ ← Previous Day ]
WEATHER ALMANAC - FEBRUARY 13, 2013
[ Next Day → ]
[ °C ]   °F
Weather ElementAverageHighLow
Temperature26.3 °F29.8 °F (3:00 pm)21.6 °F (11:00 pm)
Dewpoint17.5 °F19 °F (5:00 pm)16 °F (8:00 am)
Humidity68 %85 % (11:00 pm)48 % (2:00 pm)
Barometer29.77 in29.80 in (9:00 am)29.75 in (1:00 am)
Wind Speed3.8 mph6.9 mph (3:00 pm)
Weather ElementAverage
Wind DirectionWSW (240.4 °)

Weather ElementTotal
Precipitation---
Heating Degree Days39.3 (Base 65)
Averaged from 26 records on February 13, 2013
WEATHER CONDITIONS BREAKOUT
WIND DIRECTION BREAKOUT
WEATHER BY HOUR - FEBRUARY 13, 2013
[ °C ]   °F
Local TimeTemperatureDewpointHumidityBarometerVisibilityWind DirectionWind SpeedGust SpeedPrecipitationEventsConditions
1:00 AM26.8 °F18.5 °F71 %29.75 inWest (280°)3.5 mph
2:00 AM26.0 °F17.0 °F59 %29.75 inWNW (290°)4.6 mph
2:00 AM26.2 °F17.4 °F69 %29.75 inWNW (290°)4.6 mph
3:00 AM25.5 °F17.1 °F70 %29.76 inWest (270°)4.6 mph
4:00 AM25.2 °F16.9 °F71 %29.76 inWest (280°)2.3 mph
5:00 AM24.8 °F17.1 °F72 %29.77 inWest (270°)4.6 mph
6:00 AM24.6 °F17.1 °F73 %29.78 inWest (280°)3.5 mph
7:00 AM24.4 °F16.7 °F72 %29.78 inWest (270°)3.5 mph
8:00 AM24.0 °F16.0 °F61 %29.79 inWest (260°)3.5 mph
8:00 AM24.1 °F16.2 °F72 %29.79 inWest (260°)3.5 mph
9:00 AM24.3 °F16.5 °F72 %29.80 inWest (270°)4.6 mph
10:00 AM24.8 °F16.9 °F72 %29.80 inWNW (300°)3.5 mph
11:00 AM26.2 °F16.5 °F67 %29.80 inNW (310°)3.5 mph
12:00 PM27.7 °F16.3 °F62 %29.80 inNNW (330°)3.5 mph
1:00 PM28.6 °F17.2 °F63 %29.78 inSSE (150°)3.5 mph
2:00 PM29.0 °F17.0 °F48 %29.76 inSSE (150°)5.8 mph
2:00 PM28.9 °F16.9 °F61 %29.76 inSSE (150°)5.8 mph
3:00 PM29.8 °F18.0 °F61 %29.75 inSSE (160°)6.9 mph
5:00 PM29.7 °F19.0 °F65 %29.75 inSouth (190°)6.9 mph
6:00 PM28.6 °F18.1 °F65 %29.75 inSouth (170°)3.5 mph
7:00 PM28.0 °F18.9 °F68 %29.75 inWNW (300°)2.3 mph
8:00 PM27.0 °F19.0 °F62 %29.75 inWest (280°)3.5 mph
8:00 PM27.0 °F19.0 °F72 %29.75 inWest (280°)3.5 mph
9:00 PM25.5 °F18.5 °F75 %29.76 inENE (60°)1.2 mph
10:00 PM24.3 °F18.7 °F79 %29.76 inNE (50°)1.2 mph
11:00 PM21.6 °F17.6 °F85 %29.76 inNorth (350°)1.2 mph
Hourly data recorded from CXSH, located miles away from St. Alexis Des Monts, Quebec







STORIES FROM OUR PARTNERS